Weather History for Hatteras, NC

Change the Weather History Date:

Monday, August 11, 2014

  Actual Average Record
Temperature  
Mean Temperature 80 °F 79 °F  
Max Temperature 86 °F 85 °F 93 °F (1958)
Min Temperature 74 °F 73 °F 65 °F (1944)
Degree Days  
Heating Degree Days 0 0  
Month to date heating degree days 0 0  
Since 1 June heating degree days 0 3  
Since 1 July heating degree days 0 0  
Cooling Degree Days 15 14  
Month to date cooling degree days 141 154  
Year to date cooling degree days 1088 1042  
Since 1 June cooling degree days 852 899  
Growing Degree Days 30 (Base 50)    
Moisture  
Dew Point 67 °F    
Average Humidity 68    
Maximum Humidity 85    
Minimum Humidity 51    
Precipitation  
Precipitation 0.00 in 0.21 in 1.46 in (1989)
Month to date precipitation 5.71 2.27  
Year to date precipitation 36.71 32.53  
Snow  
Snow 0.00 in - - ()
Month to date snowfall 0.0  
Since 1 July snowfall 0.0  
Snow Depth 0.00 in    
Sea Level Pressure  
Sea Level Pressure 30.05 in    
Wind  
Wind Speed 10 mph (East)    
Max Wind Speed 17 mph    
Max Gust Speed 21 mph    
Visibility 10 miles    
Events      
T = Trace of Precipitation, MM = Missing Value Source: NWS Daily Summary

Daily Weather History Graph

Daily Weather History Graph

Search for Another Location

Airport:

Trip Planner

Search our weather history database for the weather conditions in past years. The results will help you decide how hot, cold, wet, or windy it might be!

Date:

Astronomy

Aug. 11, 2014 Rise Set
Actual Time 6:19 AM EDT 7:55 PM EDT
Civil Twilight 5:51 AM EDT 8:22 PM EDT
Nautical Twilight 5:19 AM EDT 8:55 PM EDT
Astronomical Twilight 4:44 AM EDT 9:29 PM EDT
Moon 8:28 PM EDT (8/11) 7:17 AM EDT (8/11)
Length of Visible Light 14h 30m
Length of Day
13h 36m
Full, 99% of the Moon is Illuminated
Aug 11
Full
Aug 17
Last Quarter
Aug 25
New
Sep 2
First Quarter
Sep 8
Full

Hourly Weather History & Observations

Time (EDT) Temp. Heat Index Dew Point Humidity Pressure Visibility Wind Dir Wind Speed Gust Speed Precip Events Conditions
12:51 AM 73.9 °F - 66.0 °F 76% 30.07 in 10.0 mi East 4.6 mph - N/A   Scattered Clouds
1:51 AM 75.0 °F - 66.9 °F 76% 30.07 in 10.0 mi East 5.8 mph - N/A   Overcast
2:51 AM 75.0 °F - 66.9 °F 76% 30.06 in 10.0 mi East 5.8 mph - N/A   Partly Cloudy
3:51 AM 75.0 °F - 68.0 °F 79% 30.06 in 10.0 mi East 4.6 mph - N/A   Scattered Clouds
5:51 AM 75.9 °F - 68.0 °F 76% 30.05 in 10.0 mi East 5.8 mph - N/A   Overcast
6:51 AM 77.0 °F - 68.0 °F 74% 30.05 in 10.0 mi East 6.9 mph - N/A   Scattered Clouds
7:51 AM 79.0 °F - 68.0 °F 69% 30.06 in 10.0 mi ESE 12.7 mph - N/A   Clear
8:51 AM 80.1 °F 82.9 °F 69.1 °F 69% 30.06 in 10.0 mi ESE 11.5 mph - N/A   Mostly Cloudy
9:51 AM 84.0 °F 86.5 °F 66.9 °F 56% 30.07 in 10.0 mi ESE 12.7 mph - N/A   Mostly Cloudy
10:51 AM 84.9 °F 87.6 °F 66.9 °F 55% 30.09 in 10.0 mi ESE 12.7 mph - N/A   Clear
11:51 AM 84.0 °F 86.5 °F 66.9 °F 56% 30.09 in 10.0 mi ESE 13.8 mph - N/A   Clear
12:51 PM 86.0 °F 88.8 °F 66.9 °F 53% 30.07 in 10.0 mi ESE 11.5 mph - N/A   Clear
1:51 PM 84.9 °F 86.6 °F 64.9 °F 51% 30.07 in 10.0 mi ESE 12.7 mph - N/A   Clear
2:51 PM 84.9 °F 87.1 °F 66.0 °F 53% 30.05 in 10.0 mi ESE 12.7 mph - N/A   Clear
3:51 PM 84.9 °F 86.6 °F 64.9 °F 51% 30.03 in 10.0 mi ESE 13.8 mph - N/A   Clear
4:51 PM 84.0 °F 85.8 °F 64.9 °F 53% 30.02 in 10.0 mi ESE 12.7 mph - N/A   Clear
5:51 PM 82.9 °F 84.6 °F 64.9 °F 54% 30.02 in 10.0 mi East 12.7 mph - N/A   Clear
6:51 PM 81.0 °F 83.0 °F 66.0 °F 60% 30.01 in 10.0 mi East 13.8 mph - N/A   Clear
7:51 PM 79.0 °F - 68.0 °F 69% 30.01 in 10.0 mi East 6.9 mph - N/A   Clear
8:51 PM 78.1 °F - 70.0 °F 76% 30.00 in 10.0 mi East 8.1 mph - N/A   Clear
9:51 PM 79.0 °F - 72.0 °F 79% 30.01 in 10.0 mi East 11.5 mph - N/A   Scattered Clouds